Weather History for Atwater, CA

Change the Weather History Date:

Thursday, October 10, 2013

  Actual Average (KMCE) Record (KMCE)
Temperature  
Mean Temperature 60 °F 66 °F  
Max Temperature 75 °F 81 °F 93 °F (1999)
Min Temperature 44 °F 50 °F 45 °F (2001)
Degree Days  
Heating Degree Days 6    
Month to date heating degree days  
Since 1 July heating degree days  
Cooling Degree Days 0    
Month to date cooling degree days  
Year to date cooling degree days  
Growing Degree Days 10 (Base 50)    
Moisture  
Dew Point 46 °F    
Average Humidity 78    
Maximum Humidity 100    
Minimum Humidity 27    
Precipitation  
Precipitation 0.00 in 0.02 in 0.88 in (2000)
Month to date precipitation 0.11  
Year to date precipitation 9.10  
Since 1 July precipitation 0.42  
Snow  
Snow 0.00 in - - ()
Month to date snowfall  
Since 1 July snowfall  
Since 1 September snowfall  
Snow Depth -    
Sea Level Pressure  
Sea Level Pressure 29.88 in    
Wind  
Wind Speed 6 mph (SSE)    
Max Wind Speed 18 mph    
Max Gust Speed 21 mph    
Visibility 9 miles    
Events      
T = Trace of Precipitation, MM = Missing Value Source: NWS Daily Summary

Daily Weather History Graph

Daily Weather History Graph

Search for Another Location

Airport:

Trip Planner

Search our weather history database for the weather conditions in past years. The results will help you decide how hot, cold, wet, or windy it might be!

Date:

Astronomy

Oct. 10, 2013 Rise Set
Actual Time 7:06 AM PDT 6:31 PM PDT
Civil Twilight 6:39 AM PDT 6:57 PM PDT
Nautical Twilight 6:09 AM PDT 7:28 PM PDT
Astronomical Twilight 5:39 AM PDT 7:58 PM PDT
Moon 12:57 PM PDT (10/10) 11:19 PM PDT (10/10)
Length of Visible Light 12h 18m
Length of Day
11h 25m
Waxing Crescent, 37% of the Moon is Illuminated
Oct 10
Waxing Crescent
Oct 11
First Quarter
Oct 18
Full
Oct 26
Last Quarter
Nov 3
New

Hourly Weather History & Observations

Time (PDT) Temp. Windchill Dew Point Humidity Pressure Visibility Wind Dir Wind Speed Gust Speed Precip Events Conditions
12:15 AM 50.0 °F - 48.2 °F 94% 29.76 in 10.0 mi SSE 6.9 mph - N/A   Clear
12:35 AM 50.0 °F - 48.2 °F 94% 29.77 in 10.0 mi SE 6.9 mph - N/A   Clear
12:55 AM 48.2 °F - 48.2 °F 100% 29.78 in 10.0 mi SSE 5.8 mph - N/A   Clear
1:15 AM 48.2 °F - 46.4 °F 93% 29.78 in 10.0 mi SSE 6.9 mph - N/A   Clear
1:35 AM 48.2 °F - 46.4 °F 93% 29.79 in 10.0 mi South 4.6 mph - N/A   Clear
1:55 AM 48.2 °F - 48.2 °F 100% 29.80 in 10.0 mi SSE 8.1 mph - N/A   Clear
2:15 AM 48.2 °F - 46.4 °F 93% 29.80 in 10.0 mi SSE 8.1 mph - N/A   Clear
2:35 AM 48.2 °F - 46.4 °F 93% 29.81 in 10.0 mi SSE 4.6 mph - N/A   Clear
2:55 AM 48.2 °F - 46.4 °F 93% 29.81 in 10.0 mi SSE 6.9 mph - N/A   Clear
3:15 AM 48.2 °F - 48.2 °F 100% 29.80 in 10.0 mi South 6.9 mph - N/A   Clear
3:35 AM 48.2 °F - 46.4 °F 93% 29.81 in 10.0 mi SSE 5.8 mph - N/A   Clear
3:55 AM 48.2 °F - 48.2 °F 100% 29.82 in 10.0 mi SE 4.6 mph - N/A   Clear
4:15 AM 48.2 °F - 48.2 °F 100% 29.83 in 10.0 mi South 3.5 mph - N/A   Clear
4:35 AM 46.4 °F 42.9 °F 44.6 °F 93% 29.81 in 10.0 mi South 6.9 mph - N/A   Clear
4:55 AM 46.4 °F 43.5 °F 46.4 °F 100% 29.82 in 10.0 mi South 5.8 mph - N/A   Clear
5:15 AM 46.4 °F 43.5 °F 46.4 °F 100% 29.84 in 10.0 mi South 5.8 mph - N/A   Clear
5:35 AM 46.4 °F 43.5 °F 46.4 °F 100% 29.84 in 10.0 mi South 5.8 mph - N/A   Clear
5:55 AM 46.4 °F 42.9 °F 46.4 °F 100% 29.84 in 10.0 mi South 6.9 mph - N/A   Clear
6:15 AM 46.4 °F 43.5 °F 46.4 °F 100% 29.85 in 10.0 mi SSE 5.8 mph - N/A   Clear
6:35 AM 46.4 °F 44.3 °F 46.4 °F 100% 29.86 in 10.0 mi SSE 4.6 mph - N/A   Clear
6:45 AM 46.4 °F 44.3 °F 46.4 °F 100% 29.86 in 10.0 mi Variable 4.6 mph - N/A   Clear
6:55 AM 44.6 °F 43.1 °F 44.6 °F 100% 29.87 in 10.0 mi SSE 3.5 mph - N/A   Clear
7:45 AM 48.2 °F - 48.2 °F 100% 29.89 in 10.0 mi Variable 4.6 mph - N/A   Clear
8:45 AM 55.4 °F - 48.2 °F 77% 29.91 in 10.0 mi SSE 9.2 mph - N/A   Clear
9:45 AM 60.8 °F - 46.4 °F 59% 29.93 in 10.0 mi SSE 18.4 mph - N/A   Clear
10:45 AM 64.4 °F - 46.4 °F 52% 29.95 in 10.0 mi SSE 11.5 mph 20.7 mph N/A   Clear
11:45 AM 68.0 °F - 46.4 °F 46% 29.95 in 10.0 mi South 11.5 mph - N/A   Clear
12:45 PM 71.6 °F - 44.6 °F 38% 29.95 in 10.0 mi South 6.9 mph - N/A   Clear
1:45 PM 73.4 °F - 42.8 °F 33% 29.93 in 10.0 mi South 12.7 mph - N/A   Clear
2:45 PM 73.4 °F - 41.0 °F 31% 29.93 in 10.0 mi SE 9.2 mph - N/A   Clear
3:45 PM 75.2 °F - 41.0 °F 29% 29.93 in 10.0 mi Variable 4.6 mph - N/A   Clear
4:46 PM 75.2 °F - 39.2 °F 27% 29.92 in 10.0 mi Variable 4.6 mph - N/A   Clear
5:45 PM 71.6 °F - 39.2 °F 31% 29.92 in 10.0 mi Calm Calm - N/A   Clear
6:45 PM 64.4 °F - 44.6 °F 49% 29.92 in 10.0 mi Calm Calm - N/A   Clear
7:45 PM 59.0 °F - 46.4 °F 63% 29.94 in 10.0 mi Calm Calm - N/A   Clear
8:45 PM 57.2 °F - 46.4 °F 67% 29.95 in 10.0 mi Calm Calm - N/A   Clear
9:15 PM 53.6 °F - 46.4 °F 77% 29.96 in 5.0 mi Calm Calm - N/A   Clear
9:35 PM 57.2 °F - 44.6 °F 63% 29.96 in 8.0 mi Calm Calm - N/A   Clear
9:55 PM 59.0 °F - 42.8 °F 55% 29.97 in 9.0 mi Calm Calm - N/A   Clear
10:15 PM 53.6 °F - 42.8 °F 67% 29.98 in 2.5 mi Calm Calm - N/A   Clear
10:35 PM 51.8 °F - 44.6 °F 76% 29.98 in 5.0 mi Calm Calm - N/A   Clear
10:55 PM 51.8 °F - 44.6 °F 76% 29.98 in 2.5 mi Calm Calm - N/A   Clear
11:15 PM 51.8 °F - 46.4 °F 82% 29.99 in 7.0 mi SW 3.5 mph - N/A   Clear
11:55 PM 51.8 °F - 44.6 °F 76% 29.99 in 2.0 mi Calm Calm - N/A   Clear